Home   Weather   Darwin   Past weeks
Flag for Australia

Past Weather in Darwin, Northern Territory, Australia — Yesterday and Last 2 Weeks

Now
91 °F

Scattered clouds.


Feels Like: 105 °F
Forecast: 92 / 80 °F
Wind: 13 mph from Northwest

Location: Darwin Airport

Current Time: Mar 29, 2020 at 3:51:43 pm

Latest Report: Mar 29, 2020 at 3:30 pm


Visibility: N/A

Pressure: 29.71 "Hg

Humidity: 63%

Dew Point: 77 °F

Location of DarwinLocation

Past Weather in Darwin — Graph

°F

Darwin Temperature Yesterday

Maximum temperature yesterday: 95 °F (at 3:00 pm)
Minimum temperature yesterday: 77 °F (at 12:00 am)
Average temperature yesterday: 85 °F

High & Low Weather Summary for the Past Weeks

 TemperatureHumidityPressure
High95 °F (Mar 22, 3:30 pm)100% (Mar 15, 5:00 am)29.95 "Hg (Mar 15, 5:00 am)
Low73 °F (Mar 15, 5:00 am)36% (Mar 22, 2:00 pm)29.68 "Hg (Mar 14, 3:00 pm)
Average84 °F74%29.83 "Hg
* Reported Mar 14 2:30 pm — Mar 29 2:30 pm, Darwin. Weather by CustomWeather, © 2020

Note: Actual official high and low records may vary slightly from our data, if they occured in-between our weather recording intervals... More about our weather records

Darwin Weather History for the Previous 24 Hours

Scroll right to see more
 ConditionsComfort  
Time TempWeatherWind HumidityBarometerVisibility
2:30 pm
Sun, Mar 29
93 °FPassing clouds.12 mph63%29.74 "HgN/A
2:00 pm91 °FPassing clouds.12 mph63%29.74 "HgN/A
1:30 pm91 °FPassing clouds.12 mph63%29.74 "HgN/A
1:00 pm93 °FScattered clouds.9 mph53%29.77 "HgN/A
12:30 pm93 °FPassing clouds.8 mph53%29.77 "HgN/A
12:00 pm91 °FPassing clouds.8 mph52%29.80 "HgN/A
11:30 am91 °FPassing clouds.7 mph56%29.80 "HgN/A
11:00 am90 °FPassing clouds.7 mph67%29.80 "HgN/A
10:30 am88 °FPassing clouds.7 mph70%29.83 "HgN/A
10:00 am88 °FPassing clouds.6 mph75%29.83 "HgN/A
9:30 am86 °FPassing clouds.5 mph79%29.83 "HgN/A
9:00 am86 °FPassing clouds.2 mph75%29.83 "HgN/A
8:30 am84 °FPassing clouds.2 mph74%29.83 "HgN/A
8:00 am84 °FPassing clouds.No wind74%29.80 "HgN/A
7:30 am79 °FPassing clouds.1 mph89%29.80 "HgN/A
7:00 am79 °FPassing clouds.1 mph89%29.80 "HgN/A
6:30 am77 °FPassing clouds.3 mph94%29.77 "HgN/A
6:00 am79 °FPassing clouds.3 mph89%29.77 "HgN/A
5:30 am79 °FPassing clouds.2 mph89%29.77 "HgN/A
5:00 am79 °FClear.5 mph94%29.77 "HgN/A
4:30 am79 °FClear.3 mph94%29.77 "HgN/A
4:00 am79 °FClear.3 mph94%29.77 "HgN/A
3:30 am81 °FClear.3 mph89%29.77 "HgN/A
3:00 am81 °FClear.5 mph89%29.77 "HgN/A
2:30 am82 °FClear.6 mph84%29.77 "HgN/A
2:00 am84 °FPassing clouds.7 mph84%29.77 "HgN/A
1:30 am84 °FClear.3 mph84%29.77 "HgN/A
1:00 am82 °FPassing clouds.3 mph89%29.80 "HgN/A
12:30 am82 °FPassing clouds.3 mph89%29.80 "HgN/A
12:00 am84 °FPassing clouds.5 mph84%29.80 "HgN/A
11:30 pm
Sat, Mar 28
84 °FPassing clouds.3 mph84%29.80 "HgN/A
11:00 pm84 °FPassing clouds.5 mph79%29.80 "HgN/A
10:30 pm84 °FPassing clouds.6 mph79%29.80 "HgN/A
10:00 pm84 °FPassing clouds.6 mph79%29.80 "HgN/A
9:30 pm86 °FPassing clouds.6 mph75%29.80 "HgN/A
9:00 pm84 °FPassing clouds.7 mph79%29.77 "HgN/A
8:30 pm86 °FPassing clouds.7 mph75%29.77 "HgN/A
8:00 pm86 °FPassing clouds.7 mph75%29.77 "HgN/A
7:30 pm86 °FPassing clouds.7 mph70%29.74 "HgN/A
7:00 pm86 °FPartly sunny.8 mph70%29.74 "HgN/A
6:30 pm88 °FPartly sunny.9 mph66%29.74 "HgN/A
6:00 pm88 °FPartly sunny.9 mph66%29.74 "HgN/A
5:30 pm90 °FPartly sunny.12 mph67%29.71 "HgN/A
5:00 pm91 °FPartly sunny.12 mph63%29.71 "HgN/A
4:30 pm91 °FPartly sunny.10 mph59%29.71 "HgN/A
4:00 pm93 °FSunny.10 mph44%29.71 "Hg10 mi
3:30 pm95 °FSunny.5 mph36%29.74 "Hg10 mi
3:00 pm95 °FSunny.6 mph39%29.74 "Hg10 mi
Weather by CustomWeather, © 2020

See weather overview

Advertising